Regional Weather Roundup
Issued by NWS

Home | Current Version | Previous Version | Graphics & Text | Print | Product List | Glossary On
Versions: 1 2 3 4 5 6 7 8 9 10 11 12 13 14 15 16 17 18 19 20 21 22 23 24 25 26 27 28 29 30 31 32 33 34 35 36 37 38 39 40 41 42 43 44 45 46 47 48 49 50
000
ASUS45 KCYS 140810
RWRWY

WYOMING REGIONAL WEATHER ROUNDUP
NATIONAL WEATHER SERVICE CHEYENNE WY
100 AM MST SUN FEB 14 2016

NOTE:  "FAIR" INDICATES FEW OR NO CLOUDS BELOW 12,000 FEET
WITH NO SIGNIFICANT WEATHER AND/OR OBSTRUCTIONS TO VISIBILITY.

WYZ001-140900-
YELLOWSTONE NATIONAL PARK

CITY           SKY/WX    TMP DP  RH WIND       PRES   REMARKS
LK YELLOWSTONE   N/A     22  19  89 CALM      30.07F
W YELLOWSTONE  NOT AVBL

$$
WYZ002>013-054>058-071-098>099-140900-
NORTHERN WYOMING

CITY           SKY/WX    TMP DP  RH WIND       PRES   REMARKS
JACKSON        CLOUDY    30  19  64 S14G21    30.13F WCI  20
CODY           FAIR      39  16  38 W22G32    29.94F WCI  29
GREYBULL       FAIR      30  21  69 E5        29.99F WCI  25
WORLAND        FAIR      33  22  63 SE13      29.98F WCI  24
SHERIDAN       FAIR      29  18  63 N3        29.95F
BUFFALO        FAIR      34  12  40 E5        29.95F WCI  30
GILLETTE       FAIR      28  22  78 W10       29.94F WCI  19
HULETT         FAIR      32  28  86 S9        29.93S WCI  24
NEWCASTLE      FAIR      27  27 100 W6        29.97S WCI  20

$$
WYZ014>020-022>026-101>103-140900-
CENTRAL WYOMING

CITY           SKY/WX    TMP DP  RH WIND       PRES   REMARKS
BIG PINEY      FAIR      17  13  84 NW5       30.15F WCI  10
PINEDALE         N/A     19  14  79 MISG      30.14F
DUBOIS         FAIR      28  12  50 N25G35    30.00F WCI  14
LANDER         FAIR      27  16  63 VRB3      29.98F
RIVERTON       FAIR      29  16  58 SW6       30.01F WCI  23
CASPER         FAIR      28  17  63 SW17      30.03F WCI  16
DOUGLAS        FAIR      28  22  78 NW5       30.03F WCI  23

$$
WYZ021-027>030-104>119-140900-
SOUTHERN WYOMING

CITY           SKY/WX    TMP DP  RH WIND       PRES   REMARKS
EVANSTON       FAIR      25  17  72 SW15      30.22F WCI  13
FORT BRIDGER   SUNNY     28  21  74 W17       30.22F WCI  16
ROCK SPRINGS   FAIR      29  19  66 SW14      30.14F WCI  18
DIXON          FAIR      19  15  85 CALM      30.22S
RAWLINS        FAIR      25  16  68 W12       30.10F WCI  14
SARATOGA       FAIR      25  18  74 W5        30.13F WCI  19
LARAMIE        FAIR      28  14  55 SW12      30.06F WCI  18
CHEYENNE       FAIR      33  17  51 NW16G30   30.02F WCI  23
TORRINGTON     FAIR      28  23  81 W9        30.03F WCI  19
PINE BLUFFS    FAIR      32  23  69 NW16      30.03F WCI  21

$$



USA.gov is the U.S. government's official web portal to all federal, state and local government web resources and services.